• In Deutschland
  • Länderverzeichnis
  • Für 7 Tage
  • Wassertemperatur
  • Satellitenkarten
  • Wetterkarte
  • Widgets
  • user-avatar
    Anmelden

    Stündliche Wetter Brest

    Heute, 17 August, Donnerstag

    Zeit Temperatur Niederschläge Wind Luftdruck Luftfeuchtigkeit
    00:00 +20°C° 0 mm 1 m/S 752 mmHg 72%
    01:00 +20°C° 0 mm 1 m/S 752 mmHg 74%
    02:00 +19°C° 0 mm 1 m/S 752 mmHg 77%
    03:00 +19°C° 0 mm 1 m/S 752 mmHg 79%
    04:00 +19°C° 0 mm 1 m/S 752 mmHg 81%
    05:00 +18°C° 0 mm 1 m/S 752 mmHg 83%
    06:00 +18°C° 0 mm 0 m/S 752 mmHg 78%
    07:00 +19°C° 0 mm 0 m/S 752 mmHg 73%
    08:00 +21°C° 0 mm 0 m/S 752 mmHg 68%
    09:00 +23°C° 0 mm 0 m/S 752 mmHg 62%
    10:00 +25°C° 0 mm 0 m/S 752 mmHg 57%
    11:00 +27°C° 0 mm 0 m/S 753 mmHg 51%
    12:00 +29°C° 0 mm 1 m/S 752 mmHg 48%
    13:00 +30°C° 0 mm 1 m/S 752 mmHg 44%
    14:00 +31°C° 0 mm 1 m/S 752 mmHg 41%
    15:00 +30°C° 0 mm 1 m/S 752 mmHg 42%
    16:00 +30°C° 0 mm 1 m/S 752 mmHg 42%
    17:00 +30°C° 0 mm 1 m/S 751 mmHg 43%
    18:00 +28°C° 0 mm 1 m/S 751 mmHg 48%
    19:00 +26°C° 0 mm 1 m/S 751 mmHg 53%
    20:00 +25°C° 0 mm 1 m/S 751 mmHg 57%
    21:00 +24°C° 0 mm 1 m/S 751 mmHg 59%
    22:00 +23°C° 0 mm 1 m/S 751 mmHg 61%
    23:00 +23°C° 0 mm 1 m/S 751 mmHg 64%

    Morgen, 18 August, Freitag

    Zeit Temperatur Niederschläge Wind Luftdruck Luftfeuchtigkeit
    00:00 +22°C° 0 mm 1 m/S 751 mmHg 66%
    01:00 +22°C° 0 mm 1 m/S 751 mmHg 68%
    02:00 +21°C° 0 mm 1 m/S 751 mmHg 71%
    03:00 +21°C° 0 mm 1 m/S 751 mmHg 73%
    04:00 +20°C° 0 mm 2 m/S 751 mmHg 76%
    05:00 +19°C° 0 mm 2 m/S 751 mmHg 79%
    06:00 +21°C° 0,1 mm 2 m/S 751 mmHg 76%
    07:00 +23°C° 0,1 mm 2 m/S 751 mmHg 74%
    08:00 +24°C° 0,1 mm 2 m/S 752 mmHg 72%
    09:00 +26°C° 0,1 mm 2 m/S 751 mmHg 67%
    10:00 +27°C° 0,1 mm 3 m/S 751 mmHg 63%
    11:00 +28°C° 0,1 mm 3 m/S 751 mmHg 58%
    12:00 +30°C° 0,2 mm 3 m/S 751 mmHg 54%
    13:00 +31°C° 0,2 mm 3 m/S 751 mmHg 49%
    14:00 +33°C° 0,2 mm 4 m/S 751 mmHg 44%
    15:00 +31°C° 0 mm 3 m/S 750 mmHg 45%
    16:00 +31°C° 0 mm 3 m/S 750 mmHg 47%
    17:00 +31°C° 0 mm 2 m/S 750 mmHg 48%
    18:00 +29°C° 0 mm 2 m/S 750 mmHg 52%
    19:00 +28°C° 0 mm 2 m/S 750 mmHg 56%
    20:00 +26°C° 0 mm 2 m/S 750 mmHg 60%
    21:00 +26°C° 0 mm 2 m/S 750 mmHg 62%
    22:00 +25°C° 0 mm 3 m/S 750 mmHg 63%
    23:00 +24°C° 0 mm 3 m/S 750 mmHg 65%

    übermorgen, 19 August, Samstag

    Zeit Temperatur Niederschläge Wind Luftdruck Luftfeuchtigkeit
    00:00 +24°C° 0 mm 3 m/S 750 mmHg 66%
    01:00 +22°C° 0 mm 3 m/S 750 mmHg 66%
    02:00 +22°C° 0 mm 3 m/S 750 mmHg 67%
    03:00 +21°C° 0 mm 3 m/S 750 mmHg 67%
    04:00 +21°C° 0 mm 3 m/S 750 mmHg 67%
    05:00 +21°C° 0 mm 3 m/S 749 mmHg 67%
    06:00 +22°C° 0 mm 3 m/S 750 mmHg 64%
    07:00 +23°C° 0 mm 4 m/S 750 mmHg 62%
    08:00 +25°C° 0 mm 4 m/S 750 mmHg 59%
    09:00 +26°C° 0 mm 5 m/S 750 mmHg 55%
    10:00 +28°C° 0 mm 5 m/S 750 mmHg 50%
    11:00 +30°C° 0 mm 5 m/S 750 mmHg 46%
    12:00 +32°C° 0 mm 6 m/S 749 mmHg 43%
    13:00 +33°C° 0 mm 6 m/S 749 mmHg 40%
    14:00 +34°C° 0 mm 6 m/S 749 mmHg 37%
    15:00 +33°C° 0 mm 6 m/S 748 mmHg 39%
    16:00 +33°C° 0 mm 5 m/S 748 mmHg 41%
    17:00 +33°C° 0 mm 5 m/S 747 mmHg 43%
    18:00 +30°C° 0,1 mm 5 m/S 748 mmHg 47%
    19:00 +28°C° 0,1 mm 5 m/S 748 mmHg 51%
    20:00 +26°C° 0,1 mm 4 m/S 748 mmHg 55%
    21:00 +25°C° 0,4 mm 4 m/S 749 mmHg 62%
    22:00 +23°C° 0,4 mm 4 m/S 749 mmHg 69%
    23:00 +22°C° 0,4 mm 4 m/S 749 mmHg 76%

    20 August, Sonntag

    Zeit Temperatur Niederschläge Wind Luftdruck Luftfeuchtigkeit
    00:00 +21°C° 0,8 mm 4 m/S 750 mmHg 81%
    01:00 +20°C° 0,8 mm 4 m/S 750 mmHg 85%
    02:00 +19°C° 0,8 mm 4 m/S 750 mmHg 89%
    03:00 +17°C° 0,2 mm 5 m/S 750 mmHg 89%
    04:00 +16°C° 0,2 mm 5 m/S 750 mmHg 89%
    05:00 +16°C° 0,2 mm 5 m/S 751 mmHg 89%
    06:00 +15°C° 0 mm 5 m/S 751 mmHg 88%
    07:00 +15°C° 0 mm 5 m/S 752 mmHg 86%
    08:00 +15°C° 0 mm 5 m/S 752 mmHg 84%
    09:00 +15°C° 0,1 mm 5 m/S 752 mmHg 82%
    10:00 +15°C° 0,1 mm 5 m/S 753 mmHg 79%
    11:00 +16°C° 0,1 mm 5 m/S 753 mmHg 77%
    12:00 +16°C° 0,1 mm 5 m/S 753 mmHg 77%
    13:00 +16°C° 0,1 mm 5 m/S 753 mmHg 77%
    14:00 +17°C° 0,1 mm 4 m/S 754 mmHg 77%
    15:00 +17°C° 0,1 mm 4 m/S 754 mmHg 77%
    16:00 +15°C° 0,1 mm 4 m/S 754 mmHg 77%
    17:00 +15°C° 0,1 mm 4 m/S 754 mmHg 77%
    18:00 +16°C° 0 mm 3 m/S 754 mmHg 77%
    19:00 +14°C° 0 mm 3 m/S 754 mmHg 77%
    20:00 +15°C° 0 mm 2 m/S 754 mmHg 77%
    21:00 +15°C° 0,2 mm 2 m/S 754 mmHg 79%
    22:00 +14°C° 0,2 mm 2 m/S 754 mmHg 82%
    23:00 +14°C° 0,2 mm 2 m/S 754 mmHg 84%

    21 August, Montag

    Zeit Temperatur Niederschläge Wind Luftdruck Luftfeuchtigkeit
    00:00 +14°C° 0,8 mm 2 m/S 754 mmHg 86%
    01:00 +14°C° 0,8 mm 2 m/S 754 mmHg 89%
    02:00 +14°C° 0,8 mm 1 m/S 754 mmHg 92%
    03:00 +14°C° 0,5 mm 1 m/S 754 mmHg 92%
    04:00 +14°C° 0,5 mm 1 m/S 754 mmHg 93%
    05:00 +13°C° 0,5 mm 1 m/S 754 mmHg 94%
    06:00 +14°C° 0,1 mm 1 m/S 754 mmHg 91%
    07:00 +15°C° 0,1 mm 1 m/S 754 mmHg 88%
    08:00 +15°C° 0,1 mm 2 m/S 755 mmHg 86%
    09:00 +17°C° 0 mm 2 m/S 754 mmHg 79%
    10:00 +18°C° 0 mm 2 m/S 754 mmHg 72%
    11:00 +21°C° 0 mm 1 m/S 754 mmHg 64%
    12:00 +22°C° 0 mm 1 m/S 754 mmHg 60%
    13:00 +22°C° 0 mm 1 m/S 753 mmHg 56%
    14:00 +23°C° 0 mm 1 m/S 753 mmHg 51%
    15:00 +23°C° 0 mm 1 m/S 753 mmHg 51%
    16:00 +23°C° 0 mm 1 m/S 752 mmHg 51%
    17:00 +23°C° 0 mm 1 m/S 752 mmHg 51%
    18:00 +21°C° 0 mm 1 m/S 752 mmHg 55%
    19:00 +20°C° 0 mm 1 m/S 752 mmHg 59%
    20:00 +18°C° 0 mm 1 m/S 751 mmHg 64%
    21:00 +18°C° 0 mm 1 m/S 751 mmHg 66%
    22:00 +16°C° 0 mm 2 m/S 751 mmHg 67%
    23:00 +16°C° 0 mm 2 m/S 751 mmHg 69%

    22 August, Dienstag

    Zeit Temperatur Niederschläge Wind Luftdruck Luftfeuchtigkeit
    00:00 +16°C° 0 mm 2 m/S 751 mmHg 70%
    01:00 +16°C° 0 mm 2 m/S 751 mmHg 71%
    02:00 +16°C° 0 mm 3 m/S 750 mmHg 72%
    03:00 +14°C° 0 mm 3 m/S 750 mmHg 74%
    04:00 +14°C° 0 mm 3 m/S 750 mmHg 76%
    05:00 +14°C° 0 mm 3 m/S 750 mmHg 78%
    06:00 +16°C° 0 mm 3 m/S 750 mmHg 76%
    07:00 +17°C° 0 mm 3 m/S 749 mmHg 74%
    08:00 +18°C° 0 mm 4 m/S 749 mmHg 72%
    09:00 +19°C° 0 mm 4 m/S 749 mmHg 66%
    10:00 +21°C° 0 mm 4 m/S 749 mmHg 60%
    11:00 +23°C° 0 mm 4 m/S 749 mmHg 54%
    12:00 +23°C° 0 mm 4 m/S 748 mmHg 52%
    13:00 +25°C° 0 mm 4 m/S 748 mmHg 50%
    14:00 +26°C° 0 mm 4 m/S 747 mmHg 48%
    15:00 +26°C° 0 mm 4 m/S 747 mmHg 48%
    16:00 +26°C° 0 mm 4 m/S 746 mmHg 49%
    17:00 +26°C° 0 mm 4 m/S 746 mmHg 50%
    18:00 +23°C° 0 mm 4 m/S 745 mmHg 55%
    19:00 +22°C° 0 mm 4 m/S 745 mmHg 60%
    20:00 +20°C° 0 mm 4 m/S 745 mmHg 64%
    21:00 +20°C° 0 mm 4 m/S 745 mmHg 64%
    22:00 +20°C° 0 mm 4 m/S 744 mmHg 64%
    23:00 +20°C° 0 mm 5 m/S 744 mmHg 63%
    Mehr zeigen